www.pogodaiklimat.ru

Погода и климат >> Архив погоды >> Непал >> Гхорахи


ПОГОДА в Гхорахи

  • Прогноз погоды в Гхорахи
  • Монитор погоды в Гхорахи

АРХИВ ПОГОДЫ в Гхорахи

Время (UTC), дата Ветер
(напр.,м/с)
 
Видим.   Явления Облачность Т
(С)
Тd
(С)
f
(%)
Тe
(С)
Тes
(С)
Комфортность P
(гПа)
Po
(гПа)
Тmin
(С)
Tmax
(С)
R
(мм)
R24
(мм)
S
(см)
12 12.06 З 1 10 км ясно +32.6 +18.7 44 +38 +40 очень
душно
998.6 926.0 +34.0 2
00 13.06 штиль 0 10 км ясно +25.2 +21.0 78 +32 +32 очень
душно
1000.3 927.7
06 13.06 З 1 10 км 3/3 600 м
[Cu med, cong]
+34.2 +22.4 50 +43 +61 опасность
перегрева
1000.4 927.8
12 13.06 штиль 0 15 км ясно +34.4 +20.6 45 +41 +44 опасность
перегрева
998.5 926.1 +36.8
00 14.06 штиль 0 6000 м 3/1 600 м
[Cu Sc Ac cast Ci sp]
+25.6 +22.5 83 +34 +34 очень
душно
999.1 926.7
06 14.06 СЗ 2 10 км 1/1 600 м
[Cu hum]
+35.8 +19.2 38 +41 +60 опасность
перегрева
998.2 925.8
09 14.06 З 2 10 км 1/1 600 м
[Cu hum]
+38.6 +17.3 29 +41 +56 опасность
перегрева
997.2 925.0
12 14.06 З 2 10 км 1/1 600 м
[Cu hum]
+36.4 +18.3 35 +41 +42 опасность
перегрева
995.7 924.3 +39.2
00 15.06 штиль 0 10 км ясно +25.4 +18.6 66 +30 +30 душно 996.4 925.0
03 15.06 З 1 15 км ясно +30.6 +20.9 56 +38 +50 очень
душно
997.4 925.2 +25.2
06 15.06 З 1 15 км ясно +37.6 +12.5 22 +37 +63 опасность
солнечного
удара
997.1 924.9
09 15.06 Ю 2 15 км ясно +39.2 +9.7 17 +38 +54 опасность
солнечного
удара
995.3 924.2
12 15.06 Ю 1 15 км ясно +37.2 +12.1 22 +37 +39 очень
жарко
994.1 923.0 +39.9
00 16.06 штиль 0 10 км ясно +25.0 +13.0 47 +27 +27 жарко 995.3 924.2
03 16.06 З 1 15 км ясно +30.4 +17.0 45 +34 +46 очень
душно
996.3 924.9 +25.0
06 16.06 З 2 15 км 1/1 600 м
[Cu hum]
+36.0 +15.9 30 +38 +59 опасность
солнечного
удара
995.8 924.4
09 16.06 З 1 10 км ясно +38.4 +16.6 28 +41 +59 опасность
перегрева
994.8 923.4
12 16.06 З 2 15 км ясно +36.0 +15.9 30 +38 +40 очень
душно
994.9 923.5 +38.7
00 17.06 штиль 0 6000 м ясно +25.2 +19.0 69 +30 +30 душно 996.3 924.9
03 17.06 штиль 0 15 км ясно +28.0 +18.7 57 +33 +47 очень
душно
998.2 926.0 +24.7
06 17.06 З 2 15 км 1/1 600 м
[Cu hum]
+35.0 +17.4 35 +38 +59 опасность
солнечного
удара
997.4 925.2
09 17.06 З 2 15 км 3/3 600 м
[Cu med, cong]
+35.8 +19.6 39 +41 +53 опасность
перегрева
995.9 924.3
03 18.06 штиль 0 15 км ясно +29.2 +22.2 66 +38 +52 опасность
солнечного
удара
999.6 927.2 +25.2
06 18.06 З 2 15 км 3/3 600 м
[Cu med, cong]
+34.6 +21.6 47 +43 +59 опасность
перегрева
998.6 926.2
09 18.06 З 3 10 км 4/4 600 м
[Cu med, cong]
+37.6 +9.7 19 +36 +45 очень
жарко
997.9 925.7
12 18.06 З 1 10 км 3/3 600 м
[Cu med, cong]
+34.0 +18.4 40 +39 +40 очень
душно
997.5 925.3 +38.0
00 19.06 штиль 0 10 км 5/3 1000 м
[Cu hum Ac trans]
+25.0 +18.7 68 +30 +30 душно 999.0 926.8
03 19.06 штиль 0 15 км 5/3 1000 м
[Cu hum Ac trans]
+30.0 +18.6 50 +35 +43 очень
душно
1000.4 928.0 +24.8
06 19.06 В 2 10 км 5/5 300 м
[Sc diur, vesp]
+33.2 +19.3 44 +39 +50 очень
душно
1000.0 927.6

 

Местоположение метеостанции Гхорахи (Непал): широта 28.05 долгота 82.50 высота над уровнем моря 634 м.

В архиве по умолчанию представлена погода в Гхорахи за последнюю неделю. Архивные данные за месяц целиком и за предыдущие месяцы, начиная с января 2011 года, Вы можете получить, выбрав интересующий диапазон дат из раскрывающегося списка и нажав кнопку "Ввод!".


*Определитесь, кто Вы:
робот инопланетянин человек

Внимание! Время в таблицах - всемирное. Для получения местного времени необходимо прибавить поправку, которая равна 5.5 ч.

Смотрите также архив погоды в соседних городах и на ближайших метеорологических станциях:

Погода в Непалгандже (Непал) (82 км)
Погода в Бахрайче (Уттар-Прадеш, Индия) (103 км)
Погода в Суркхете (Непал) (106 км)
Погода в Сиддхартханагаре (Непал) (111 км)
Погода в Джумле (Непал) (141 км)
Погода в Покхаре (Непал) (146 км)
Погода в Горакпуре (Уттар-Прадеш, Индия) (168 км)
Погода в Дипаял-Силгадхи (Непал) (202 км)
Погода в Султанпуре (Уттар-Прадеш, Индия) (203 км)
Погода в Дхангадхи (Непал) (208 км)

Пояснения к столбцам:

Ветер - указаны скорость ветра в м/с - средняя за 10 мин, порывы в срок и между сроками (в фигурных скобках) и направление, откуда дует ветер: С - северный, СВ - северо-восточный, В - восточный, ЮВ - юго-восточный, Ю - южный, ЮЗ - юго-западный, З - западный, СЗ - северо-западный.
Видимость - горизонтальная дальность видимости в метрах или километрах. При видимости от 1 до 10 км при отсутствии осадков обычно наблюдается дымка, при ухудшении видимости до 1 км и менее - туман. В сухую погоду видимость может ухудшаться дымом, пылью или мглою.
Явления - указаны атмосферные явления, наблюдавшиеся в срок или в последний час перед сроком; фигурными скобками обозначены явления, наблюдавшиеся между сроками (за 1-3 часа до срока); квадратными скобками обозначены град или гололедные отложения с указанием их диаметра в мм.
Облачность - указаны через наклонную черту общая и нижняя облачность в баллах и высота нижней границы облаков в метрах; квадратными скобками обозначены формы облаков: Ci - перистые, Cs - перисто-слоистые, Cc - перисто-кучевые, Ac - высококучевые, As - высокослоистые, Sc - слоисто-кучевые, Ns - слоисто-дождевые, Cu - кучевые, Cb - кучево-дождевые. Подробнее классификацию облаков см. в Атласе облаков (PDF).
T - Температура воздуха - температура, измеренная на высоте 2 м над землей.
Td - Температура точки росы - температура, при понижении до которой содержащийся в воздухе водяной пар достигнет насыщения.
f - Относительная влажность воздуха - влажноcть воздуха, измеренная на высоте 2 м над землей.
Te - Эффективная температура - температура, которую ощущает одетый по сезону человек в тени. Характеристика душности погоды. При расчете учитывается влияние влажности воздуха и скорости ветра на теплоощущения человека.
Tes - Эффективная температура на солнце - температура, которую ощущает человек, с поправкой на солнечный нагрев. Характеристика знойности погоды. Зависит от высоты солнца над горизонтом, облачности и скорости ветра. Ночью, в пасмурную погоду, а также при ветре 12 м/с и более поправка равна нулю.
P - Атмосферное давление - приведенное к уровню моря атмосферное давление.
Po - Атмосферное давление - измеренное на уровне метеостанции атмосферное давление.
Tmin - Минимальная температура - минимум температуры воздуха на высоте 2 м над землей.
Tmax - Максимальная температура - максимум температуры воздуха на высоте 2 м над землей.
R - Количество осадков - Количество выпавших осадков за период времени, мм. При наведении курсора мыши на число - период времени, за который выпало указанное количество осадков.
R24 - Количество осадков - Количество выпавших осадков за 24 часа, мм.
S - Снежный покров - Высота снежного покрова, см. При наведении курсора мыши на число - состояние снежного покрова и степень покрытия местности в баллах.